Location: Banff
(51.1667°N, 115.5667°W)
Time: 11:47:08
(UTC+00:00)

Courier 1B Rocket - Pass Details

Date: 28 November 2020
Orbit: 920 x 1202 km, 28.2° (Epoch: 17 January)

Event Time Altitude Azimuth Distance (km) Brightness Sun altitude
Rises 15:40:15 0° 230° (SW) 4,070 8.1 1.6°
Reaches altitude 10° 15:46:00 10° 198° (SSW) 3,059 7.9 2.3°
Maximum altitude 15:47:44 11° 184° (S) 2,974 8.1 2.5°
Drops below altitude 10° 15:49:28 10° 170° (S) 3,020 8.5 2.7°
Sets 15:54:59 0° 137° (SE) 3,903 11.0 3.4°
